Regional Weather Roundup
Issued by NWS Memphis, TN

Home | Current Version | Previous Version | Text Only | Print | Product List | Glossary On
Versions: 1 2 3 4 5 6 7 8 9 10 11 12 13 14 15 16 17 18 19 20 21 22 23 24 25 26 27 28 29 30 31 32 33 34 35 36 37 38 39 40 41 42 43 44 45 46 47 48 49 50
000
ASUS44 KMEG 291300
RWRMEG
MEMPHIS CWA HOURLY WEATHER ROUNDUP
NATIONAL WEATHER SERVICE MEMPHIS TN
800 AM CDT MON AUG 29 2016

...WEST TENNESSEE...

CITY           SKY/WX    TMP DP  RH WIND       PRES   REMARKS
MEMPHIS INTL   PTSUNNY   82  71  69 E6        30.10R
NWS MEMPHIS      N/A     78 N/A N/A MISG        N/A
JACKSON        SUNNY     76  74  93 E6        30.13R
LEXINGTON      SUNNY     75  73  94 CALM      30.13R
DYERSBURG      SUNNY     77  73  88 MISG      30.13R
UNION CITY     SUNNY     75  75 100 E5        30.13R
PARIS          SUNNY     73  70  88 E7        30.16R


...EASTERN ARKANSAS...

CITY           SKY/WX    TMP DP  RH WIND       PRES   REMARKS
JONESBORO      SUNNY     79  74  84 NE3       30.11R
WEST MEMPHIS   MOSUNNY   78  73  84 E3        30.09R
BATESVILLE     SUNNY     73  72  94 W3        30.13R
NEWPORT        CLOUDY    77  75  93 N6        30.12R
WALNUT RIDGE   SUNNY     77  73  88 N6        30.12R
BLYTHEVILLE    SUNNY     79  75  87 VRB3      30.12R
SEARCY         MOSUNNY   78  75  90 N3        30.12R
STUTTGART      PTSUNNY   77  72  83 CALM      30.09R
PINE BLUFF     MOSUNNY   78  75  90 CALM      30.08R
MONTICELLO     MOSUNNY   81  73  76 CALM      30.07R


...NORTH MISSISSIPPI...

CITY           SKY/WX    TMP DP  RH WIND       PRES   REMARKS
TUPELO         MOSUNNY   78  70  76 N3        30.10R
OXFORD         MOSUNNY   75  68  78 CALM      30.12R
BATESVILLE     SUNNY     77  72  84 CALM      30.10R
OLIVE BRANCH   MOSUNNY  N/A N/A N/A E7        30.10R
TUNICA         SUNNY     75  72  88 NE3       30.10R
CLARKSDALE     SUNNY     79  79 100 NE5       30.09R
GREENWOOD      SUNNY     79  71  76 NE3       30.06R
COLUMBUS       SUNNY     78  72  83 E3        30.07R
GOLDEN TRIANGL SUNNY     73  66  78 CALM      30.06R


...SOUTHEAST MISSOURI...

CITY           SKY/WX    TMP DP  RH WIND       PRES   REMARKS
KENNETT        SUNNY     79  77  94 NE6       30.12R FOG
WEST PLAINS    SUNNY     75  71  87 CALM      30.21R FOG
POPLAR BLUFF   SUNNY     77  74  90 NE6       30.14R
CAPE GIRARDEAU SUNNY     77  73  87 E5        30.15R


...NORTHWEST ALABAMA...

CITY           SKY/WX    TMP DP  RH WIND       PRES   REMARKS
MUSCLE SHOALS  SUNNY     77  71  82 CALM      30.14R


...MIDDLE TENNESSEE...

CITY           SKY/WX    TMP DP  RH WIND       PRES   REMARKS
NASHVILLE      SUNNY     76  70  82 NE3       30.17R
CLARKSVILLE    SUNNY     74  69  85 E5        30.17R
COLUMBIA       SUNNY    N/A N/A N/A CALM      30.14R


...WESTERN KENTUCKY...

CITY           SKY/WX    TMP DP  RH WIND       PRES   REMARKS
PADUCAH        SUNNY     77  72  84 E5        30.16R
FORT CAMPBELL  SUNNY     74  69  85 E6        30.16R


...CENTRAL ARKANSAS...

CITY           SKY/WX    TMP DP  RH WIND       PRES   REMARKS
LITTLE ROCK    MOSUNNY   79  74  84 NW5       30.09R


SKY/WX REPORTED AS FAIR MEANS FEW OR NO CLOUDS BELOW
12 THOUSAND FEET.




USA.gov is the U.S. government's official web portal to all federal, state and local government web resources and services.